ELECTRON KICK STAGE R/B, 65973

Orbit data source: Space-Track

ELECTRON KICK STAGE R/B, 65973 is space debris in LEO originally from a launch on Tue, 14 Oct 2025 UTC launched from the Rocket Lab Launch Complex (RLLC). Debris objects in space refer to the collection of defunct objects orbiting the Earth. Examples of debris include non-operational satellites, rocket bodies, and fragments generated from explosions, collisions, or faulty payload assembly.

Loading next visibility...
Identifier
65973, 2025-229C
Orbit
LEO
Country
Flag of USUS
Related business
Manufacturer
Rocket Lab
Mission
Spacecraft
Bus & Motor
KICK STAGE, CURIE
Mass
~50 kg wet, ~50 kg dry
Launch date (UTC)
2025-10-14 (2 months ago)
Launch vehicle
Unknown
Launch site
Rocket Lab Launch Complex (RLLC)
Object type
Payload
Rocket body
Debris
Shape & HBR
Unknown shape, 8.0 m
Radar Cross Section
RCS unknown

Expand to show TLE details & history
Last TLE update: 10 hours ago

TLE from 10 hours ago
0 ELECTRON KICK STAGE R/B
1 65973U 25229C   25340.88366189  .00010977  00000-0  79453-3 0  9998
2 65973  41.9842 272.0306 0041739 234.5583 125.1344 15.03256543  8006
Epoch: 2025-12-06T21:12Z
TLE epoch observation values (Epoch: 2025-12-06T21:12:28.387Z)
Latitude
0.00005°
Longitude
-121.99263°
Altitude
573.265 km
Speed
7.567 km/s
True Right ascension
18h 08m 07s
True Declination
0° 00' 00"
Sunlit
Object was in daylight at epoch
Visualization orbit readout
Latitude
Unknown
Longitude
Unknown
Altitude
Unknown
Speed
Unknown
Apparent Right ascension
Unknown
Apparent Declination
Unknown
Sunlit
N/A
Visualization observer readout
Local Sidereal Time
05:03:16
Azimuth
Unknown
Elevation
Unknown
Doppler factor
Unknown
Orbital elements
Apogee altitude
587.91 km
Perigee altitude
530.001 km
Semi-major axis
6,937.092 km
Eccentricity
0.00417
Inclination
41.9842°
RAAN
272.0306°
Arg. of periapsis
234.5583°
True anomaly
125.52438°
Mean anomaly
125.1344°
Eccentric anomaly
125.32951°
Mean motion
3.75644 °/min
Orbital period
95.84 mins
BSTAR
0.00079453
Loading maneuver chart data...
Computing Atmospheric mass density...
Loading historical data...
Loading historical data...
Loading historical data...
Loading historical data...
Loading historical data...
Loading historical data...
Loading historical data...
Other satellites on launch #229 in the year 2025 (2025-10-14 UTC)

Documentation

Showing up to 5 results
|